Time,TemperatureF,DewpointF,PressureIn,WindDirection,WindDirectionDegrees,WindSpeedMPH,WindSpeedGustMPH,Humidity,HourlyPrecipIn,Conditions,Clouds,dailyrainin,SoftwareType,DateUTC
2013-03-27 00:03:00,34.0,30.0,29.91,West,280,9.0,-999.0,86,-99.99,,,-99.99,,2013-03-27 04:03:00,
2013-03-27 00:13:00,34.0,30.0,29.91,West,280,9.0,-999.0,86,-99.99,,,-99.99,,2013-03-27 04:13:00,
2013-03-27 00:23:00,34.0,30.0,29.91,WNW,290,7.0,-999.0,86,-99.99,,,-99.99,,2013-03-27 04:23:00,
2013-03-27 00:33:00,34.0,30.0,29.91,West,280,8.0,-999.0,86,-99.99,,,-99.99,,2013-03-27 04:33:00,
2013-03-27 00:42:00,36.0,32.0,29.91,West,280,8.0,-999.0,86,-99.99,,,-99.99,,2013-03-27 04:42:00,
2013-03-27 00:52:00,34.0,30.0,29.91,West,280,9.0,-999.0,86,-99.99,,,-99.99,,2013-03-27 04:52:00,
2013-03-27 01:03:00,34.0,30.0,29.91,West,280,9.0,-999.0,86,-99.99,,,-99.99,,2013-03-27 05:03:00,
2013-03-27 01:12:00,34.0,30.0,29.91,WNW,290,8.0,-999.0,86,-99.99,,,-99.99,,2013-03-27 05:12:00,
2013-03-27 01:23:00,34.0,30.0,29.91,West,280,8.0,-999.0,86,-99.99,,,-99.99,,2013-03-27 05:23:00,
2013-03-27 01:33:00,34.0,32.0,29.91,West,280,9.0,-999.0,93,-99.99,,,-99.99,,2013-03-27 05:33:00,
2013-03-27 01:42:00,34.0,32.0,29.91,West,280,9.0,-999.0,93,-99.99,,,-99.99,,2013-03-27 05:42:00,
2013-03-27 01:52:00,34.0,32.0,29.91,West,280,10.0,-999.0,93,-99.99,,,-99.99,,2013-03-27 05:52:00,
2013-03-27 02:02:00,34.0,32.0,29.91,West,280,10.0,-999.0,93,-99.99,,,-99.99,,2013-03-27 06:02:00,
2013-03-27 02:12:00,34.0,32.0,29.91,West,270,13.0,17.0,93,-99.99,,,-99.99,,2013-03-27 06:12:00,
2013-03-27 02:22:00,34.0,32.0,29.91,West,270,13.0,-999.0,93,-99.99,,,-99.99,,2013-03-27 06:22:00,
2013-03-27 02:32:00,34.0,32.0,29.90,West,280,12.0,-999.0,93,-99.99,,,-99.99,,2013-03-27 06:32:00,
2013-03-27 02:42:00,34.0,32.0,29.90,West,270,12.0,18.0,93,-99.99,,,-99.99,,2013-03-27 06:42:00,
2013-03-27 02:52:00,34.0,32.0,29.90,West,270,13.0,20.0,93,-99.99,,,-99.99,,2013-03-27 06:52:00,
2013-03-27 03:02:00,34.0,32.0,29.90,West,270,13.0,20.0,93,-99.99,,,-99.99,,2013-03-27 07:02:00,
2013-03-27 03:12:00,34.0,30.0,29.90,West,270,16.0,22.0,86,-99.99,,,-99.99,,2013-03-27 07:12:00,
2013-03-27 03:22:00,34.0,30.0,29.89,West,270,15.0,21.0,86,-99.99,,,-99.99,,2013-03-27 07:22:00,
2013-03-27 03:32:00,34.0,30.0,29.89,West,280,13.0,-999.0,86,-99.99,,,-99.99,,2013-03-27 07:32:00,
2013-03-27 03:42:00,34.0,30.0,29.89,West,270,13.0,-999.0,86,-99.99,,,-99.99,,2013-03-27 07:42:00,
2013-03-27 03:53:00,34.0,30.0,29.90,West,280,12.0,-999.0,86,-99.99,,,-99.99,,2013-03-27 07:53:00,
2013-03-27 04:02:00,34.0,30.0,29.90,West,280,12.0,-999.0,86,-99.99,,,-99.99,,2013-03-27 08:02:00,
2013-03-27 04:12:00,34.0,30.0,29.90,West,280,12.0,-999.0,86,-99.99,,,-99.99,,2013-03-27 08:12:00,
2013-03-27 04:22:00,34.0,30.0,29.89,West,280,13.0,17.0,86,-99.99,,,-99.99,,2013-03-27 08:22:00,
2013-03-27 04:32:00,34.0,30.0,29.89,West,280,10.0,17.0,86,-99.99,,,-99.99,,2013-03-27 08:32:00,
2013-03-27 04:43:00,34.0,30.0,29.89,West,270,14.0,21.0,86,-99.99,,,-99.99,,2013-03-27 08:43:00,
2013-03-27 04:52:00,34.0,30.0,29.89,West,270,13.0,21.0,86,-99.99,,,-99.99,,2013-03-27 08:52:00,
2013-03-27 05:02:00,34.0,30.0,29.89,West,270,13.0,21.0,86,-99.99,,,-99.99,,2013-03-27 09:02:00,
2013-03-27 05:12:00,34.0,30.0,29.89,West,280,13.0,18.0,86,-99.99,,,-99.99,,2013-03-27 09:12:00,
2013-03-27 05:22:00,34.0,30.0,29.89,West,280,14.0,20.0,86,-99.99,,,-99.99,,2013-03-27 09:22:00,
2013-03-27 05:32:00,34.0,30.0,29.89,West,270,15.0,22.0,86,-99.99,,,-99.99,,2013-03-27 09:32:00,
2013-03-27 05:42:00,34.0,30.0,29.89,West,270,17.0,23.0,86,-99.99,,,-99.99,,2013-03-27 09:42:00,
2013-03-27 05:52:00,30.0,28.0,29.90,West,270,14.0,20.0,92,-99.99,,,-99.99,,2013-03-27 09:52:00,
2013-03-27 06:03:00,30.0,28.0,29.90,West,270,14.0,20.0,92,-99.99,,,-99.99,,2013-03-27 10:03:00,
2013-03-27 06:12:00,30.0,28.0,29.90,West,270,15.0,22.0,92,-99.99,,,-99.99,,2013-03-27 10:12:00,
2013-03-27 06:23:00,30.0,28.0,29.90,West,270,14.0,20.0,92,-99.99,,,-99.99,,2013-03-27 10:23:00,
2013-03-27 06:32:00,30.0,28.0,29.91,West,270,13.0,-999.0,92,-99.99,,,-99.99,,2013-03-27 10:32:00,
2013-03-27 06:42:00,30.0,28.0,29.91,West,270,15.0,22.0,92,-99.99,,,-99.99,,2013-03-27 10:42:00,
2013-03-27 06:52:00,30.0,28.0,29.91,West,270,14.0,20.0,92,-99.99,,,-99.99,,2013-03-27 10:52:00,
2013-03-27 07:03:00,30.0,28.0,29.91,West,270,14.0,20.0,92,-99.99,,,-99.99,,2013-03-27 11:03:00,
2013-03-27 07:12:00,32.0,28.0,29.91,West,270,13.0,-999.0,86,-99.99,,,-99.99,,2013-03-27 11:12:00,
2013-03-27 07:22:00,34.0,30.0,29.92,West,270,13.0,-999.0,86,-99.99,,,-99.99,,2013-03-27 11:22:00,
2013-03-27 07:32:00,34.0,30.0,29.92,West,280,14.0,-999.0,86,-99.99,,,-99.99,,2013-03-27 11:32:00,
2013-03-27 07:42:00,34.0,32.0,29.92,West,270,12.0,20.0,93,-99.99,,,-99.99,,2013-03-27 11:42:00,
2013-03-27 07:52:00,34.0,30.0,29.93,West,270,13.0,18.0,86,-99.99,,,-99.99,,2013-03-27 11:52:00,
2013-03-27 08:02:00,34.0,30.0,29.93,West,270,13.0,18.0,86,-99.99,,,-99.99,,2013-03-27 12:02:00,
2013-03-27 08:12:00,34.0,30.0,29.93,West,280,13.0,18.0,86,-99.99,,,-99.99,,2013-03-27 12:12:00,
2013-03-27 08:23:00,34.0,30.0,29.93,West,280,10.0,18.0,86,-99.99,,,-99.99,,2013-03-27 12:23:00,
2013-03-27 08:32:00,34.0,30.0,29.93,West,280,15.0,21.0,86,-99.99,,,-99.99,,2013-03-27 12:32:00,
2013-03-27 08:43:00,34.0,30.0,29.94,West,280,14.0,20.0,86,-99.99,,,-99.99,,2013-03-27 12:43:00,
2013-03-27 08:52:00,36.0,32.0,29.94,West,280,15.0,21.0,86,-99.99,,,-99.99,,2013-03-27 12:52:00,
2013-03-27 09:02:00,36.0,32.0,29.94,West,280,15.0,21.0,86,-99.99,,,-99.99,,2013-03-27 13:02:00,
2013-03-27 09:12:00,36.0,32.0,29.94,West,280,13.0,-999.0,86,-99.99,,,-99.99,,2013-03-27 13:12:00,
2013-03-27 09:22:00,36.0,32.0,29.94,West,280,10.0,22.0,86,-99.99,,,-99.99,,2013-03-27 13:22:00,
2013-03-27 09:32:00,39.0,34.0,29.95,WNW,290,13.0,20.0,80,-99.99,,,-99.99,,2013-03-27 13:32:00,
2013-03-27 09:42:00,39.0,34.0,29.95,WNW,290,13.0,20.0,80,-99.99,,,-99.99,,2013-03-27 13:42:00,
2013-03-27 09:52:00,39.0,34.0,29.95,WNW,290,15.0,23.0,80,-99.99,,,-99.99,,2013-03-27 13:52:00,
2013-03-27 10:02:00,39.0,34.0,29.95,WNW,290,15.0,23.0,80,-99.99,,,-99.99,,2013-03-27 14:02:00,
2013-03-27 10:12:00,39.0,34.0,29.95,WNW,290,15.0,21.0,80,-99.99,,,-99.99,,2013-03-27 14:12:00,
2013-03-27 10:22:00,39.0,34.0,29.95,WNW,300,16.0,22.0,80,-99.99,,,-99.99,,2013-03-27 14:22:00,
2013-03-27 10:32:00,39.0,34.0,29.95,West,280,13.0,22.0,80,-99.99,,,-99.99,,2013-03-27 14:32:00,
2013-03-27 10:42:00,41.0,36.0,29.95,WNW,290,16.0,20.0,80,-99.99,,,-99.99,,2013-03-27 14:42:00,
2013-03-27 10:52:00,41.0,34.0,29.95,WNW,290,14.0,-999.0,75,-99.99,,,-99.99,,2013-03-27 14:52:00,
2013-03-27 11:02:00,41.0,34.0,29.95,WNW,290,14.0,-999.0,75,-99.99,,,-99.99,,2013-03-27 15:02:00,
2013-03-27 11:12:00,43.0,36.0,29.95,WNW,300,16.0,22.0,75,-99.99,,,-99.99,,2013-03-27 15:12:00,
2013-03-27 11:22:00,43.0,36.0,29.95,West,270,17.0,22.0,75,-99.99,,,-99.99,,2013-03-27 15:22:00,
2013-03-27 11:33:00,43.0,36.0,29.95,West,270,20.0,24.0,75,-99.99,,,-99.99,,2013-03-27 15:33:00,
2013-03-27 11:42:00,43.0,36.0,29.96,WNW,290,15.0,24.0,75,-99.99,,,-99.99,,2013-03-27 15:42:00,
2013-03-27 11:52:00,43.0,34.0,29.96,WNW,300,14.0,22.0,70,-99.99,,,-99.99,,2013-03-27 15:52:00,
2013-03-27 12:03:00,43.0,34.0,29.96,WNW,300,14.0,22.0,70,-99.99,,,-99.99,,2013-03-27 16:03:00,
2013-03-27 12:13:00,43.0,36.0,29.96,WNW,290,16.0,25.0,75,-99.99,,,-99.99,,2013-03-27 16:13:00,
2013-03-27 12:22:00,45.0,36.0,29.96,West,280,15.0,24.0,70,-99.99,,,-99.99,,2013-03-27 16:22:00,
2013-03-27 12:33:00,46.0,37.0,29.96,WNW,290,16.0,24.0,70,-99.99,,,-99.99,,2013-03-27 16:33:00,
2013-03-27 12:42:00,46.0,37.0,29.95,West,270,16.0,23.0,70,-99.99,,,-99.99,,2013-03-27 16:42:00,
2013-03-27 12:52:00,46.0,36.0,29.96,West,280,14.0,23.0,65,-99.99,,,-99.99,,2013-03-27 16:52:00,
2013-03-27 13:03:00,46.0,36.0,29.96,West,280,14.0,23.0,65,-99.99,,,-99.99,,2013-03-27 17:03:00,
2013-03-27 13:12:00,48.0,37.0,29.96,WNW,300,17.0,25.0,66,-99.99,,,-99.99,,2013-03-27 17:12:00,
2013-03-27 13:22:00,48.0,37.0,29.95,WNW,290,13.0,21.0,66,-99.99,,,-99.99,,2013-03-27 17:22:00,
2013-03-27 13:32:00,48.0,37.0,29.95,West,280,14.0,22.0,66,-99.99,,,-99.99,,2013-03-27 17:32:00,
2013-03-27 13:44:00,48.0,37.0,29.95,WNW,290,16.0,22.0,66,-99.99,,,-99.99,,2013-03-27 17:44:00,
2013-03-27 13:52:00,45.0,34.0,29.95,WNW,290,15.0,22.0,65,-99.99,,,-99.99,,2013-03-27 17:52:00,
2013-03-27 14:02:00,45.0,34.0,29.95,WNW,290,15.0,22.0,65,-99.99,,,-99.99,,2013-03-27 18:02:00,
2013-03-27 14:12:00,45.0,36.0,29.95,West,280,15.0,22.0,70,-99.99,,,-99.99,,2013-03-27 18:12:00,
2013-03-27 14:22:00,46.0,36.0,29.95,West,280,15.0,21.0,65,-99.99,,,-99.99,,2013-03-27 18:22:00,
2013-03-27 14:32:00,46.0,37.0,29.94,West,280,16.0,23.0,70,-99.99,,,-99.99,,2013-03-27 18:32:00,
2013-03-27 14:42:00,46.0,36.0,29.94,WNW,300,16.0,23.0,65,-99.99,,,-99.99,,2013-03-27 18:42:00,
2013-03-27 14:52:00,43.0,34.0,29.96,NW,320,15.0,23.0,70,-99.99,,,-99.99,,2013-03-27 18:52:00,
2013-03-27 15:03:00,39.0,34.0,29.96,NW,320,17.0,25.0,80,-99.99,,,-99.99,,2013-03-27 19:03:00,
2013-03-27 15:12:00,36.0,36.0,29.96,NW,320,6.0,-999.0,100,-99.99,,,-99.99,,2013-03-27 19:12:00,
2013-03-27 15:22:00,36.0,36.0,29.96,West,260,15.0,23.0,100,-99.99,,,-99.99,,2013-03-27 19:22:00,
2013-03-27 15:32:00,36.0,36.0,29.97,West,280,12.0,-999.0,100,-99.99,,,-99.99,,2013-03-27 19:32:00,
2013-03-27 15:42:00,36.0,36.0,29.97,West,270,9.0,-999.0,100,-99.99,,,-99.99,,2013-03-27 19:42:00,
2013-03-27 15:52:00,36.0,36.0,29.97,NW,320,9.0,21.0,100,-99.99,,,-99.99,,2013-03-27 19:52:00,
2013-03-27 16:03:00,36.0,36.0,29.97,NW,320,9.0,21.0,100,-99.99,,,-99.99,,2013-03-27 20:03:00,
2013-03-27 16:12:00,37.0,37.0,29.97,NW,320,6.0,-999.0,100,-99.99,,,-99.99,,2013-03-27 20:12:00,
2013-03-27 16:22:00,37.0,37.0,29.97,WNW,300,7.0,-999.0,100,-99.99,,,-99.99,,2013-03-27 20:22:00,
2013-03-27 16:32:00,39.0,39.0,29.97,West,280,14.0,21.0,100,-99.99,,,-99.99,,2013-03-27 20:32:00,
2013-03-27 16:42:00,39.0,37.0,29.97,WNW,290,13.0,23.0,93,-99.99,,,-99.99,,2013-03-27 20:42:00,
2013-03-27 16:52:00,39.0,36.0,29.97,WNW,300,15.0,24.0,86,-99.99,,,-99.99,,2013-03-27 20:52:00,
2013-03-27 17:02:00,39.0,36.0,29.97,WNW,300,15.0,24.0,86,-99.99,,,-99.99,,2013-03-27 21:02:00,
2013-03-27 17:12:00,39.0,37.0,29.98,WNW,290,16.0,23.0,93,-99.99,,,-99.99,,2013-03-27 21:12:00,
2013-03-27 17:22:00,39.0,36.0,29.98,WNW,290,15.0,22.0,86,-99.99,,,-99.99,,2013-03-27 21:22:00,
2013-03-27 17:32:00,39.0,36.0,29.98,WNW,290,15.0,21.0,86,-99.99,,,-99.99,,2013-03-27 21:32:00,
2013-03-27 17:43:00,39.0,36.0,29.98,West,280,13.0,21.0,86,-99.99,,,-99.99,,2013-03-27 21:43:00,
2013-03-27 17:52:00,39.0,36.0,29.98,WNW,290,14.0,18.0,86,-99.99,,,-99.99,,2013-03-27 21:52:00,
2013-03-27 18:03:00,39.0,36.0,29.98,WNW,290,14.0,18.0,86,-99.99,,,-99.99,,2013-03-27 22:03:00,
2013-03-27 18:12:00,39.0,36.0,29.99,WNW,290,12.0,20.0,86,-99.99,,,-99.99,,2013-03-27 22:12:00,
2013-03-27 18:23:00,36.0,36.0,30.00,WNW,290,14.0,23.0,100,-99.99,,,-99.99,,2013-03-27 22:23:00,
2013-03-27 18:33:00,36.0,36.0,30.00,WNW,290,12.0,-999.0,100,-99.99,,,-99.99,,2013-03-27 22:33:00,
2013-03-27 18:42:00,36.0,36.0,30.00,WNW,290,9.0,-999.0,100,-99.99,,,-99.99,,2013-03-27 22:42:00,
2013-03-27 18:52:00,36.0,36.0,30.00,WNW,290,12.0,-999.0,100,-99.99,,,-99.99,,2013-03-27 22:52:00,
2013-03-27 19:02:00,36.0,36.0,30.00,WNW,290,12.0,-999.0,100,-99.99,,,-99.99,,2013-03-27 23:02:00,
2013-03-27 19:12:00,36.0,36.0,30.01,WNW,290,9.0,-999.0,100,-99.99,,,-99.99,,2013-03-27 23:12:00,
2013-03-27 19:22:00,36.0,36.0,30.01,WNW,290,9.0,-999.0,100,-99.99,,,-99.99,,2013-03-27 23:22:00,
2013-03-27 19:32:00,36.0,36.0,30.01,WNW,290,8.0,-999.0,100,-99.99,,,-99.99,,2013-03-27 23:32:00,
2013-03-27 19:42:00,34.0,34.0,30.01,WNW,290,12.0,-999.0,100,-99.99,,,-99.99,,2013-03-27 23:42:00,
2013-03-27 19:52:00,34.0,34.0,30.02,WNW,290,10.0,18.0,100,-99.99,,,-99.99,,2013-03-27 23:52:00,
2013-03-27 20:02:00,34.0,34.0,30.02,WNW,290,10.0,18.0,100,-99.99,,,-99.99,,2013-03-28 00:02:00,
2013-03-27 20:12:00,34.0,34.0,30.02,WNW,290,10.0,-999.0,100,-99.99,,,-99.99,,2013-03-28 00:12:00,
2013-03-27 20:22:00,34.0,34.0,30.02,West,280,12.0,-999.0,100,-99.99,,,-99.99,,2013-03-28 00:22:00,
2013-03-27 20:32:00,34.0,34.0,30.01,West,280,13.0,-999.0,100,-99.99,,,-99.99,,2013-03-28 00:32:00,
2013-03-27 20:43:00,34.0,34.0,30.02,West,280,12.0,18.0,100,-99.99,,,-99.99,,2013-03-28 00:43:00,
2013-03-27 20:52:00,34.0,34.0,30.02,West,280,12.0,17.0,100,-99.99,,,-99.99,,2013-03-28 00:52:00,
2013-03-27 21:02:00,34.0,34.0,30.02,West,280,12.0,17.0,100,-99.99,,,-99.99,,2013-03-28 01:02:00,
2013-03-27 21:12:00,34.0,34.0,30.02,West,280,12.0,-999.0,100,-99.99,,,-99.99,,2013-03-28 01:12:00,
2013-03-27 21:22:00,34.0,34.0,30.03,WNW,290,9.0,-999.0,100,-99.99,,,-99.99,,2013-03-28 01:22:00,
2013-03-27 21:32:00,34.0,34.0,30.03,West,280,8.0,-999.0,100,-99.99,,,-99.99,,2013-03-28 01:32:00,
2013-03-27 21:42:00,34.0,34.0,30.03,West,280,12.0,-999.0,100,-99.99,,,-99.99,,2013-03-28 01:42:00,
2013-03-27 21:52:00,34.0,34.0,30.03,WNW,300,8.0,-999.0,100,-99.99,,,-99.99,,2013-03-28 01:52:00,
2013-03-27 22:03:00,34.0,34.0,30.03,WNW,300,8.0,-999.0,100,-99.99,,,-99.99,,2013-03-28 02:03:00,
2013-03-27 22:12:00,34.0,34.0,30.04,WNW,300,6.0,-999.0,100,-99.99,,,-99.99,,2013-03-28 02:12:00,
2013-03-27 22:22:00,34.0,34.0,30.04,WNW,300,7.0,-999.0,100,-99.99,,,-99.99,,2013-03-28 02:22:00,
2013-03-27 22:32:00,34.0,34.0,30.04,WNW,300,6.0,-999.0,100,-99.99,,,-99.99,,2013-03-28 02:32:00,
2013-03-27 22:42:00,34.0,34.0,30.04,WNW,300,6.0,-999.0,100,-99.99,,,-99.99,,2013-03-28 02:42:00,
2013-03-27 22:52:00,34.0,34.0,30.04,WNW,300,6.0,-999.0,100,-99.99,,,-99.99,,2013-03-28 02:52:00,
2013-03-27 23:02:00,34.0,34.0,30.03,WNW,290,6.0,-999.0,100,-99.99,,,-99.99,,2013-03-28 03:02:00,
2013-03-27 23:12:00,34.0,34.0,30.03,WNW,290,7.0,-999.0,100,-99.99,,,-99.99,,2013-03-28 03:12:00,
2013-03-27 23:22:00,34.0,34.0,30.03,West,280,7.0,-999.0,100,-99.99,,,-99.99,,2013-03-28 03:22:00,
2013-03-27 23:33:00,34.0,34.0,30.03,WNW,290,6.0,-999.0,100,-99.99,,,-99.99,,2013-03-28 03:33:00,
2013-03-27 23:43:00,34.0,34.0,30.03,WNW,290,6.0,-999.0,100,-99.99,,,-99.99,,2013-03-28 03:43:00,
2013-03-27 23:52:00,34.0,34.0,30.03,WNW,290,8.0,-999.0,100,-99.99,,,-99.99,,2013-03-28 03:52:00,